Location: Newark
(42.7133°N, 87.7910°W)
Time: 20:09:44
(UTC+00:00)

Explorer 11/Cluster Stage 4 - All Passes

Search period start: 14 October 2019 00:00
Search period end: 24 October 2019 00:00
Orbit: 467 x 1259 km, 28.8° (Epoch: 13 October)

Date Brightness Start Highest point End Pass type
(mag) Time Alt. Az. Time Alt. Az. Time Alt. Az.
14 Oct - 18:23:22 10° SSW 18:26:37 17° SSE 18:30:18 10° SE daylight
14 Oct - 20:10:19 10° SW 20:14:24 20° S 20:19:07 10° SE daylight
14 Oct - 21:59:09 10° SW 22:02:25 14° SSW 22:05:58 10° SSE daylight
15 Oct - 18:12:50 10° SSW 18:15:53 17° S 18:19:19 10° SE daylight
15 Oct - 19:59:56 10° SW 20:03:39 18° S 20:07:52 10° SE daylight
15 Oct - 21:49:23 10° SW 21:51:36 12° SSW 21:53:56 10° S daylight
16 Oct - 18:02:21 10° SSW 18:05:10 16° S 18:08:20 10° SE daylight
16 Oct - 19:49:39 10° SW 19:52:54 16° S 19:56:34 10° SSE daylight
17 Oct - 17:51:55 10° SSW 17:54:29 15° S 17:57:19 10° SE daylight
17 Oct - 19:39:29 10° SW 19:42:11 14° S 19:45:08 10° SSE daylight
18 Oct - 17:41:33 10° SSW 17:43:49 14° S 17:46:17 10° SE daylight
18 Oct - 19:29:34 10° SSW 19:31:28 12° S 19:33:32 10° SSE daylight
19 Oct - 17:31:14 10° SSW 17:33:09 13° S 17:35:12 10° SSE daylight
20 Oct - 17:21:03 10° SSW 17:22:30 12° S 17:24:00 10° SSE daylight
21 Oct - 17:11:12 10° SSW 17:11:51 10° S 17:12:30 10° S daylight
